Theta_e
315 315 315 315 315 316 321 325 326 327 328 325 323 321 322 321 318 319 321 322 322 321 320 320 321 321 321 321 321 321 321 321 321 321 325 326 320 320 321 320 321 319 318 319 321 323 324 326 328 328 327 325 326 327 327 327 329 328 322 321 321 321 322 322 322 321 322 323 323 326 327 329 331 333 334 333 333 333 332 330 329 331 332 334 335 336 337 337 336 333 332 335 334 333 331 330 328
314 314 314 317 317 320 323 324 324 324 324 322 321 319 320 320 320 321 322 322 322 321 320 320 321 321 321 321 320 321 322 321 321 322 324 322 320 322 321 321 321 320 319 319 320 321 322 324 326 329 328 326 326 326 327 328 329 328 323 322 322 321 322 322 322 322 322 323 325 328 330 332 334 335 335 335 335 334 333 332 331 332 334 334 335 335 336 335 332 332 333 334 334 334 333 332 330
314 313 317 322 323 323 323 323 324 324 322 319 318 321 320 320 321 321 321 321 321 320 319 320 321 321 320 321 321 322 322 322 322 321 323 323 322 322 322 321 321 320 320 320 319 320 321 321 323 326 328 327 326 326 327 328 329 328 325 324 323 322 323 323 323 323 323 325 328 330 331 333 335 336 336 336 336 335 333 333 333 334 335 334 334 334 333 331 328 328 330 330 329 332 334 334 332
314 312 317 324 324 324 326 325 326 324 321 319 318 321 321 320 321 320 321 320 321 320 320 321 322 322 321 321 322 322 322 322 322 322 324 325 321 320 321 321 321 321 320 321 319 318 319 320 321 323 326 328 326 326 327 328 328 329 326 325 325 325 325 324 324 324 324 327 329 330 332 334 335 336 336 336 335 335 333 333 334 334 334 333 332 330 327 324 321 319 321 323 323 327 332 334 333
314 314 315 322 325 325 327 325 324 322 319 320 319 320 322 321 321 321 321 320 321 321 320 320 321 322 322 322 321 321 322 322 322 321 322 320 319 319 320 321 321 321 320 320 320 318 317 319 320 321 323 326 327 326 327 327 328 328 328 327 327 328 327 325 325 324 325 327 329 331 333 334 335 336 336 336 334 334 333 333 333 332 332 331 329 326 322 320 316 313 314 316 317 319 323 329 333
320 322 318 320 324 323 324 322 322 321 321 323 320 320 321 319 320 321 321 321 321 321 320 320 321 322 321 322 321 321 322 322 320 320 319 318 317 318 319 321 321 321 321 320 320 319 317 318 319 320 321 324 326 326 326 327 328 328 329 329 329 328 328 327 326 325 326 327 329 331 334 335 336 336 336 335 333 332 331 331 332 332 331 329 328 325 322 319 316 313 312 312 312 313 313 318 324
323 328 323 321 323 321 321 321 322 322 321 322 320 319 320 319 320 320 321 321 321 321 320 321 321 321 321 322 321 321 321 320 318 319 319 317 317 317 317 319 321 322 321 320 320 320 319 318 318 319 320 321 324 325 326 325 326 328 329 330 329 328 329 329 326 325 326 327 328 332 335 335 336 336 335 334 332 331 331 331 331 332 332 330 329 327 324 320 316 312 311 311 311 311 311 312 314
321 325 323 322 324 323 323 323 324 324 321 321 320 320 320 320 320 320 321 321 321 321 321 321 320 320 322 321 321 322 321 319 318 318 318 317 317 317 316 317 319 321 321 320 319 320 320 319 318 318 319 320 322 323 323 324 325 326 328 329 329 329 331 330 327 326 326 326 329 332 335 335 336 335 334 334 333 332 332 331 329 329 331 332 331 328 325 322 317 311 310 310 310 310 310 310 310
321 321 321 322 325 325 325 325 325 324 322 321 320 319 319 320 320 321 320 321 322 321 321 321 321 321 321 321 321 323 322 319 318 317 317 317 317 317 316 315 317 320 321 320 319 320 320 320 318 317 317 318 320 321 322 322 323 324 325 328 329 330 332 331 328 327 325 326 329 332 335 336 336 334 333 332 330 329 328 328 327 326 326 327 328 326 323 320 314 309 309 308 308 308 308 308 307
322 322 321 323 325 324 324 324 324 323 322 321 320 320 320 320 320 320 320 321 321 321 321 321 321 320 321 320 321 323 322 319 318 317 317 317 317 317 317 315 316 319 320 321 320 320 320 320 319 318 317 316 317 319 320 322 322 323 323 325 327 329 332 332 330 328 325 326 329 332 334 334 335 333 331 330 327 325 324 324 323 320 315 315 317 316 313 311 309 307 307 306 305 305 305 305 304
324 322 320 322 324 322 322 322 322 322 321 321 320 320 320 320 320 320 321 321 321 321 321 320 320 320 320 320 321 323 321 319 318 317 317 317 317 317 317 316 316 317 319 321 320 320 320 320 320 319 317 316 316 316 318 320 322 323 321 322 324 326 330 331 330 328 326 326 328 331 333 333 333 331 328 326 323 321 320 318 315 311 308 307 308 307 306 306 305 305 304 304 304 304 304 304 304
326 326 322 323 323 322 322 321 321 322 323 321 321 320 319 320 320 320 320 320 321 321 321 321 320 320 320 320 321 324 322 320 319 318 317 317 317 317 317 317 316 316 318 320 321 321 321 320 320 320 317 316 316 316 317 318 321 323 322 322 322 323 325 327 325 324 324 325 327 329 330 330 329 326 323 320 319 317 315 312 308 307 306 305 305 305 304 304 303 303 303 304 304 304 304 304 304
325 325 325 325 323 323 323 322 322 323 323 321 320 320 318 319 320 320 320 319 319 320 321 320 320 320 320 320 321 322 322 321 320 318 318 317 317 317 317 316 316 316 317 319 321 321 320 320 320 320 319 317 316 317 317 318 320 322 323 322 322 322 322 323 322 322 322 322 324 325 326 327 325 323 319 317 316 314 312 308 305 305 304 304 304 303 303 303 303 303 304 304 305 305 305 305 305
324 323 324 325 324 323 323 323 323 322 322 321 320 319 318 318 319 319 318 318 318 319 320 319 319 319 319 319 321 322 322 321 320 318 318 317 317 317 317 317 317 317 316 317 319 320 320 320 321 321 321 318 316 317 318 319 320 321 322 321 321 321 321 321 321 321 321 320 319 320 321 322 322 321 318 315 313 311 310 307 304 304 304 304 303 304 303 303 304 304 305 305 306 306 306 306 307
322 322 324 323 323 323 323 324 324 322 322 320 319 318 318 318 318 319 318 318 318 319 318 318 318 319 319 318 321 323 321 321 319 318 318 317 317 317 317 317 316 316 316 317 317 319 320 320 320 320 321 320 317 317 317 319 320 321 321 320 320 320 320 320 320 319 318 317 316 316 316 316 317 317 316 314 312 310 308 305 304 304 304 304 303 304 304 304 305 306 306 306 306 306 307 307 307
320 321 325 323 323 323 323 324 324 322 321 320 319 319 318 318 318 318 319 318 318 318 317 318 318 318 319 318 319 320 319 319 319 318 318 317 317 317 317 317 316 316 316 316 317 317 318 319 319 319 320 321 319 318 317 318 319 320 320 320 320 320 321 321 319 318 317 317 315 314 313 314 314 314 314 312 310 308 306 304 304 304 304 304 304 304 305 306 306 306 306 306 307 307 307 307 307
320 321 324 324 324 323 322 323 323 321 319 318 319 319 318 318 319 319 319 318 318 318 318 318 318 318 318 318 318 318 318 318 318 317 317 316 317 316 317 316 316 317 316 316 316 316 317 317 318 318 319 321 321 319 318 318 318 319 319 320 321 321 322 322 320 318 318 318 315 313 313 313 312 312 311 309 308 307 305 304 304 304 304 304 304 305 307 307 307 307 307 307 307 307 307 307 307
321 323 324 323 323 323 322 321 321 320 319 318 317 318 317 317 318 318 318 318 318 317 318 317 318 318 318 318 318 318 318 318 318 317 317 316 316 316 316 316 316 316 316 316 316 316 316 317 317 317 318 319 320 320 319 318 317 318 318 318 320 321 321 321 320 319 319 318 314 312 312 312 311 310 309 308 307 306 304 304 304 304 304 304 305 306 307 307 307 307 307 307 307 307 307 307 307
321 323 324 323 323 322 321 320 320 321 320 318 317 317 317 317 317 318 318 317 317 317 317 317 317 317 318 318 319 319 319 319 319 318 317 317 316 316 315 315 315 316 316 316 316 316 316 316 316 317 317 317 319 320 320 319 318 317 316 316 316 318 319 320 320 319 320 319 315 312 312 311 310 309 308 308 307 305 304 304 304 304 304 305 306 307 307 307 307 307 307 307 307 307 307 306 307
321 322 322 322 322 321 320 319 319 320 319 318 318 317 316 316 316 317 317 317 318 317 317 317 317 317 318 318 318 318 319 319 319 318 318 317 317 316 316 315 315 315 316 316 316 316 316 316 316 317 317 317 318 319 319 320 319 317 316 315 314 315 316 317 319 319 320 319 315 312 312 311 309 308 308 307 306 305 304 304 304 304 305 305 307 307 307 307 307 307 307 307 306 307 306 306 306
321 321 321 321 320 320 318 318 318 319 319 318 318 317 316 316 317 317 318 318 318 318 317 317 317 317 317 317 317 317 318 318 318 318 318 318 317 316 316 315 315 315 316 317 316 315 316 315 316 316 316 317 318 318 319 319 319 317 316 315 314 313 313 314 316 317 319 318 315 312 312 310 309 308 307 307 306 305 304 304 304 304 305 306 307 307 307 307 307 307 306 306 307 306 306 306 306
320 320 320 321 320 319 318 318 318 319 319 318 318 317 317 316 317 317 318 318 317 317 317 317 317 317 317 317 317 317 317 317 318 318 318 318 317 316 315 315 316 316 317 317 316 315 315 315 315 315 316 317 318 318 318 319 319 318 317 317 316 314 313 313 313 315 316 316 314 312 312 311 309 307 307 308 306 305 305 304 304 305 306 306 307 307 307 307 306 306 306 306 306 306 306 306 306
321 320 320 319 318 317 317 317 318 319 318 318 318 317 317 316 316 316 317 317 317 317 317 317 317 318 318 318 317 317 317 317 317 317 317 317 316 315 315 315 315 316 317 317 316 315 315 315 315 315 315 316 317 318 318 319 319 319 318 318 317 316 315 314 313 313 313 313 313 312 312 311 309 308 307 308 306 305 305 305 305 305 306 307 307 307 307 307 306 306 306 306 306 306 306 306 306
320 320 319 318 318 317 317 317 318 318 318 318 318 317 317 316 316 316 316 317 317 317 316 316 317 317 317 318 317 317 317 317 317 317 317 317 316 315 314 314 315 315 316 316 316 314 314 314 314 314 315 315 316 316 318 318 318 319 319 318 318 317 316 315 314 313 313 313 313 312 312 312 310 308 307 308 307 305 305 305 304 305 306 306 307 307 307 307 307 307 306 306 306 306 306 306 306
318 318 318 318 318 318 317 318 318 318 318 317 317 317 317 317 317 316 316 316 316 316 316 316 317 317 317 317 317 317 317 317 317 317 317 316 316 315 315 314 314 314 315 315 314 314 314 314 314 314 314 314 315 315 316 317 318 318 319 319 318 318 317 317 315 314 314 313 313 312 312 312 311 309 308 308 307 305 305 305 305 304 305 306 307 306 307 307 306 306 306 306 306 306 306 306 306
317 317 317 316 316 317 317 316 316 316 316 316 316 317 318 317 316 316 316 316 316 317 317 317 317 317 317 317 317 316 316 316 317 316 316 316 316 315 315 315 314 314 314 314 314 314 314 314 314 314 314 314 314 315 315 316 317 317 318 318 319 318 318 318 316 315 315 314 313 312 312 313 312 311 309 308 308 306 304 305 305 304 305 306 306 306 307 306 306 306 306 306 306 306 306 306 306
317 316 316 315 315 315 315 315 315 315 315 315 315 316 317 317 316 316 316 316 316 317 317 317 316 316 316 316 316 316 316 316 316 316 316 316 316 315 315 315 315 315 315 315 314 314 314 314 314 314 314 314 314 314 314 315 315 316 317 318 318 318 318 318 317 316 315 315 314 313 313 312 313 312 311 309 308 306 304 304 305 304 304 306 306 306 306 306 306 306 306 306 306 306 306 306 306
316 315 314 315 315 315 315 315 315 315 315 316 316 316 316 316 316 316 316 316 316 316 317 317 317 316 316 316 316 316 316 315 315 316 316 316 316 316 315 315 315 315 315 315 315 314 314 314 314 314 313 313 313 314 314 314 314 315 316 317 317 318 318 318 318 317 316 315 314 314 313 312 312 312 312 310 308 307 305 304 304 304 304 305 306 306 306 306 305 306 305 305 305 306 306 306 306
315 314 314 314 314 315 315 315 316 315 316 316 316 316 316 316 316 316 316 316 317 316 317 317 316 316 317 316 316 316 316 316 316 316 316 316 316 316 316 316 315 315 315 314 314 314 314 314 314 314 313 313 313 313 313 314 314 314 315 316 316 317 318 319 319 318 317 316 315 314 314 313 313 312 312 312 309 307 306 304 304 304 304 304 305 305 305 305 305 305 305 305 305 305 306 306 306
314 314 314 314 315 315 316 316 317 316 316 316 315 315 316 316 316 316 317 317 317 317 317 316 316 316 316 316 316 316 316 316 316 316 316 316 316 316 316 316 316 315 315 315 314 315 315 314 314 314 313 313 313 313 313 313 314 314 315 315 316 316 317 318 318 318 317 316 315 315 314 313 313 312 312 312 310 308 307 305 304 304 304 304 304 305 305 305 305 305 305 305 305 305 306 306 305
314 315 315 316 316 316 317 317 317 316 315 314 315 315 315 316 317 317 317 317 317 317 317 316 316 316 316 316 316 316 316 316 316 316 316 315 315 316 316 316 316 316 315 315 315 315 315 314 314 313 313 313 313 313 313 313 313 314 315 315 316 316 317 317 318 318 317 317 316 315 315 314 313 313 312 312 311 309 308 307 305 304 304 304 303 304 304 305 305 305 305 305 305 305 305 305 305
315 315 316 318 318 317 318 318 316 316 315 314 315 316 315 316 317 318 318 317 317 316 316 316 316 316 316 316 316 316 316 316 316 316 316 316 315 315 315 315 315 315 314 314 314 314 315 314 313 313 313 313 313 313 313 314 314 315 315 316 317 318 318 318 318 318 318 317 317 316 315 315 314 313 312 312 311 310 309 308 307 305 304 303 303 303 303 304 305 305 305 305 304 304 305 305 305
317 317 316 319 319 318 320 319 316 316 315 314 315 316 316 316 317 317 317 317 316 316 315 316 316 316 316 316 316 316 316 316 316 316 316 316 315 315 314 314 314 314 313 313 313 314 314 314 313 313 313 313 313 313 314 315 315 316 316 317 318 319 319 319 319 319 319 318 318 317 316 316 315 314 313 312 311 310 309 308 307 306 304 303 303 303 303 303 304 305 305 304 304 304 304 305 304
319 319 319 319 320 319 319 319 318 317 317 316 315 315 315 316 316 316 316 316 316 316 316 315 316 316 316 316 316 316 316 317 316 316 316 315 315 315 314 314 314 313 313 312 312 313 314 314 314 313 312 312 312 312 313 314 315 316 317 318 319 319 320 320 320 320 320 319 319 318 317 316 316 315 314 313 312 310 310 309 308 307 304 303 303 303 302 302 303 304 304 304 304 304 304 304 304
320 320 320 319 319 319 318 318 319 319 318 318 318 317 317 318 317 316 317 317 316 316 316 316 316 316 316 316 316 317 317 316 316 315 315 314 313 313 313 313 312 312 312 311 311 312 312 313 312 311 311 310 310 311 311 312 314 316 318 318 319 319 320 320 320 320 320 320 319 319 318 317 317 316 315 314 313 311 310 309 308 307 305 303 302 302 302 301 302 303 303 304 304 303 303 304 304
318 319 319 319 318 318 318 318 318 319 318 318 319 318 318 318 317 316 316 316 316 316 316 316 316 316 316 316 316 317 316 315 313 313 312 311 311 310 311 311 311 311 310 310 310 310 310 311 311 310 309 309 309 309 310 310 312 314 315 316 317 317 318 318 319 319 319 319 319 319 318 318 318 317 316 315 314 312 310 309 308 307 306 304 302 302 302 302 301 302 303 304 304 303 303 303 303
318 319 319 319 319 318 318 318 318 318 319 318 319 319 317 317 317 316 316 316 315 315 316 316 316 316 316 317 317 315 314 313 312 311 310 310 309 309 309 309 310 310 309 309 309 309 309 310 310 310 308 308 308 308 309 309 310 311 312 313 313 314 315 315 316 317 318 318 318 318 318 318 318 317 317 316 315 313 311 309 308 307 307 305 304 302 302 302 301 301 302 303 303 303 303 303 303
319 320 319 319 319 318 318 318 319 318 318 318 318 318 316 316 316 316 316 316 316 316 316 316 316 317 316 316 315 314 313 312 311 310 309 309 308 308 308 308 308 308 308 308 308 309 309 309 310 311 309 308 308 308 309 308 309 309 310 311 311 312 312 312 313 314 315 315 316 316 316 316 316 316 316 316 315 315 313 311 309 308 307 306 305 303 302 301 301 301 301 301 302 302 303 303 303
320 320 320 319 319 319 318 319 319 317 317 317 317 317 316 316 316 316 316 316 316 317 316 316 316 316 315 314 314 313 312 311 310 310 308 308 308 308 308 308 308 308 308 308 308 308 308 308 309 310 309 308 308 308 309 309 308 309 310 311 312 312 312 312 311 312 312 312 312 312 313 313 313 313 314 314 315 315 315 314 312 310 308 306 305 304 303 301 301 300 300 300 301 301 302 302 302
320 320 320 319 319 320 320 320 318 317 316 317 317 317 317 316 316 317 317 316 317 317 316 315 315 314 314 313 312 311 310 310 309 308 308 308 308 308 308 308 308 309 309 308 308 308 308 308 308 308 308 308 307 307 307 308 307 307 308 308 309 309 310 310 310 310 309 309 309 309 309 310 310 310 311 312 312 313 314 315 314 313 311 308 306 305 304 302 301 301 300 300 300 300 301 302 302
321 321 321 320 320 320 320 318 317 316 317 318 318 319 319 318 319 319 318 318 317 315 313 313 313 313 312 311 310 310 309 308 307 307 307 307 308 308 308 308 309 309 309 309 309 309 308 308 308 308 307 307 307 306 306 306 306 306 306 306 306 306 307 307 307 307 307 307 307 307 307 307 307 307 308 308 309 310 311 312 313 314 313 311 308 306 304 303 301 300 300 300 300 300 301 301 302
320 322 322 321 320 320 320 320 319 318 318 319 318 320 322 320 321 321 319 319 317 313 312 312 312 311 311 311 310 308 307 307 306 306 307 307 307 308 308 308 309 309 309 309 309 309 309 309 309 309 308 308 308 307 307 307 306 306 306 306 306 306 306 306 307 307 307 307 306 306 306 306 305 305 306 306 306 307 307 308 310 311 312 312 311 308 306 303 302 300 300 299 299 299 300 300 301
320 322 323 322 319 320 320 320 320 319 319 318 317 320 320 319 320 320 319 320 316 313 312 311 311 311 310 309 309 308 306 306 305 306 306 307 307 308 308 308 308 308 308 309 309 309 309 309 309 309 309 309 309 308 308 308 307 307 306 306 305 305 305 306 306 307 306 306 305 305 305 305 305 305 305 305 305 305 305 306 306 308 309 311 311 310 308 305 303 301 299 299 299 299 298 299 300
321 322 321 320 319 319 319 318 319 319 317 317 317 319 319 319 320 319 319 319 315 312 312 311 310 310 309 308 307 306 306 305 305 305 306 307 307 307 307 307 307 308 309 309 309 309 309 309 309 309 309 309 309 309 309 308 308 308 307 306 306 305 305 305 305 305 305 305 305 304 304 304 304 304 304 304 304 304 304 304 304 305 306 307 309 309 309 308 306 303 300 298 298 298 298 298 299
322 320 317 317 317 317 317 317 318 318 317 318 319 320 321 321 320 319 320 319 315 313 312 311 310 309 308 307 306 305 305 304 305 304 304 305 306 306 307 307 307 308 308 309 309 309 309 309 309 309 309 309 309 309 309 309 308 308 308 307 307 306 305 305 305 304 304 304 304 304 304 304 304 304 304 303 303 303 304 303 303 303 303 304 306 307 308 308 308 305 302 299 298 297 297 297 297
318 317 316 316 317 317 317 317 317 317 318 319 320 321 321 324 323 321 321 317 314 313 312 310 309 308 307 306 305 304 304 303 304 304 303 304 305 306 306 306 307 307 307 307 308 308 308 308 308 308 308 308 308 308 308 308 308 308 308 307 307 306 306 305 305 304 304 304 304 304 304 304 304 304 303 303 303 302 302 303 302 302 302 302 303 304 305 306 307 306 304 301 299 297 297 297 297
315 316 317 317 318 319 318 318 317 318 320 320 320 320 320 325 328 321 319 317 314 312 312 310 308 306 305 305 304 303 302 302 302 303 303 303 304 305 306 306 306 306 306 307 307 307 307 306 306 306 307 306 306 307 307 307 307 307 307 307 306 306 306 306 305 305 304 303 303 303 304 304 304 304 303 303 303 302 302 302 302 302 302 302 301 302 303 303 304 305 304 302 299 298 297 297 296
314 315 316 317 321 319 317 318 317 319 323 322 322 321 319 323 326 318 316 316 314 313 311 309 307 305 304 303 302 302 301 301 302 303 304 304 305 305 306 306 306 306 306 306 306 306 306 306 305 306 305 305 305 306 306 306 306 306 306 306 306 306 306 305 305 305 304 303 303 303 303 303 303 303 303 302 302 302 302 302 301 301 301 301 301 301 301 301 302 303 303 302 300 298 297 296 296
314 315 314 317 321 321 321 322 321 322 323 320 321 323 321 321 322 318 316 314 312 311 310 307 305 304 303 302 301 300 300 301 302 303 304 304 305 305 305 305 305 305 305 304 305 304 305 304 304 305 304 304 305 305 305 305 305 305 305 305 305 305 305 305 305 304 304 304 303 303 302 302 302 302 302 302 302 301 302 302 301 301 300 300 300 300 300 300 300 300 301 301 300 299 297 296 296
313 316 318 320 321 321 321 322 322 323 321 318 318 320 321 321 319 317 313 309 308 307 306 305 303 302 302 300 300 299 300 301 302 302 303 303 303 304 303 303 303 303 303 303 303 302 302 303 303 303 303 303 303 304 304 304 304 304 304 304 304 304 304 304 303 303 303 303 304 303 303 302 302 302 301 301 301 301 301 301 301 301 301 300 300 300 300 300 300 299 299 299 300 299 298 297 296
314 316 319 321 322 320 319 319 321 323 322 318 316 318 322 321 316 312 309 306 306 305 303 303 302 301 300 299 299 299 300 301 301 302 302 302 302 302 301 301 301 301 301 301 301 301 300 300 300 301 301 301 301 302 302 303 303 303 303 303 303 303 303 303 302 302 302 302 303 303 303 303 302 302 302 301 301 300 300 300 300 300 300 300 300 300 299 299 299 299 299 299 299 299 298 297 297
317 317 318 320 321 320 320 320 320 321 321 318 317 320 321 317 313 309 307 305 304 304 303 303 302 301 300 299 299 299 299 300 301 301 301 300 300 300 300 300 299 299 299 299 299 299 299 299 299 298 299 299 299 300 301 301 301 301 302 302 302 302 302 302 302 301 301 301 301 301 302 302 302 302 302 302 302 301 300 300 300 300 300 299 299 300 299 299 299 299 299 299 298 298 298 298 297
318 318 320 320 319 318 320 321 319 318 319 317 316 318 317 314 313 308 306 305 304 303 303 302 301 301 300 299 298 298 299 300 300 300 300 300 299 299 299 298 298 298 297 297 297 297 296 296 296 296 296 297 297 297 298 298 299 299 300 300 301 301 301 301 300 300 300 300 300 300 300 300 301 301 302 302 302 302 301 300 300 300 299 299 299 299 299 299 299 299 298 298 298 298 298 297 297
318 319 319 318 319 319 318 318 318 318 317 315 314 316 314 315 315 310 306 306 304 304 303 301 301 300 299 299 299 299 300 300 300 299 299 299 299 298 298 297 297 296 296 295 295 294 294 294 294 294 294 294 294 294 294 295 295 296 297 297 298 298 299 299 299 299 299 299 299 299 299 299 299 299 300 301 301 302 302 302 301 300 300 299 299 299 298 298 298 298 298 298 298 298 297 297 297
316 316 315 315 319 320 318 317 318 318 317 315 315 316 314 315 317 312 308 306 305 304 303 302 301 300 299 299 299 300 300 299 299 298 298 298 297 297 297 296 295 295 294 293 292 292 292 292 292 292 292 292 291 292 292 292 292 292 293 293 294 295 296 296 297 297 297 298 298 298 298 298 298 298 298 298 299 300 300 301 301 301 301 301 300 299 298 298 298 298 298 298 297 297 297 297 297
313 312 314 315 316 318 317 317 318 318 317 316 316 316 316 316 315 312 308 306 305 305 304 303 302 301 300 299 299 299 298 298 297 297 296 296 295 295 295 295 294 294 293 292 291 290 290 290 290 290 290 290 290 290 289 289 289 289 290 290 290 291 292 292 293 294 295 296 296 296 296 296 296 296 296 296 297 297 298 299 300 301 301 301 300 300 299 298 298 297 297 297 297 297 297 296 296
315 313 314 315 315 316 317 316 316 316 316 316 315 315 317 315 311 309 308 308 308 306 305 304 302 301 300 299 299 298 297 296 296 295 295 294 294 294 294 293 292 292 292 291 291 290 290 290 289 289 289 289 289 288 288 288 288 288 288 288 288 288 289 289 290 290 291 292 293 294 294 295 295 295 295 294 294 295 295 296 297 299 300 300 300 300 299 299 298 298 297 297 297 296 296 296 296
317 316 316 315 315 316 316 315 315 315 315 316 315 315 316 313 309 309 308 308 307 306 304 303 302 301 300 299 298 298 297 296 295 294 294 293 293 292 292 291 291 290 290 290 290 289 289 289 289 289 289 288 288 288 288 288 288 288 288 288 288 288 288 288 288 288 288 289 289 290 291 292 293 293 294 294 294 294 293 294 294 295 297 298 299 300 300 299 298 298 297 297 296 296 296 296 296
Wind_Speed
11 10 9 8 8 9 8 5 4 2 2 4 4 1 2 1 1 3 3 6 4 4 7 5 4 4 5 4 4 8 9 6 4 3 1 1 1 4 2 1 2 3 6 7 11 14 16 17 17 17 16 17 18 18 18 17 16 16 16 14 13 12 11 11 11 11 10 9 7 6 5 4 3 3 3 3 3 3 4 5 6 6 5 5 5 5 5 5 4 3 4 3 2 2 1 1 1
9 8 7 6 7 5 6 3 2 3 2 3 1 3 0 1 2 3 6 6 3 3 7 6 4 4 4 6 7 8 7 6 3 4 1 1 4 4 2 2 2 4 6 6 10 15 16 18 18 18 17 17 18 18 18 17 17 17 17 15 13 12 11 10 10 10 9 8 7 6 5 5 5 4 4 4 4 5 5 6 6 6 5 5 4 4 4 5 5 4 4 4 4 5 4 4 4
6 6 4 4 6 4 5 3 2 3 4 1 2 3 2 2 4 6 6 6 3 4 5 5 4 3 3 5 4 4 4 2 1 3 1 1 4 4 3 2 4 5 6 5 9 14 16 18 18 18 18 18 19 19 19 18 17 18 18 16 14 12 11 10 10 10 9 8 7 6 6 7 6 6 5 6 6 6 7 7 7 7 6 5 5 5 6 7 7 6 5 5 5 5 5 6 7
5 3 2 1 5 4 4 2 2 3 4 2 2 2 4 2 4 5 5 5 0 3 3 4 2 1 2 4 4 5 4 2 0 1 0 3 4 4 3 3 6 7 8 6 8 13 16 17 18 18 18 18 19 20 19 19 19 18 18 17 16 14 12 11 11 11 10 9 8 7 8 8 7 7 7 7 7 8 8 8 8 8 7 6 6 7 8 9 10 9 7 7 8 6 5 6 8
3 3 2 0 3 3 1 1 2 2 3 2 1 1 5 4 4 4 5 3 2 1 2 3 2 1 3 6 4 3 2 1 1 3 3 5 5 4 4 3 7 9 9 8 8 12 15 17 18 19 19 18 19 20 20 20 19 19 19 18 17 15 14 13 12 11 11 10 9 9 9 9 8 9 8 9 10 9 7 7 8 8 8 8 9 10 11 12 13 12 10 9 10 10 9 8 9
5 5 3 1 3 3 2 2 3 3 1 3 2 3 6 4 6 5 5 4 2 2 2 2 3 3 4 5 5 4 3 2 3 5 6 6 5 4 4 4 8 10 10 11 10 11 14 16 18 19 19 19 20 20 21 20 20 20 19 19 17 15 14 13 13 12 11 10 10 10 10 10 10 11 11 13 12 9 6 6 8 10 10 10 11 13 14 15 15 14 13 12 11 12 13 12 12
3 3 2 2 3 2 2 3 4 4 0 3 2 3 5 5 7 5 5 3 2 3 2 2 2 4 4 4 5 6 4 4 5 5 6 6 6 5 5 6 8 11 11 12 13 12 13 15 18 19 20 20 20 20 21 21 20 20 19 18 17 16 15 14 14 12 11 11 11 12 11 12 13 14 15 15 13 10 8 7 9 11 13 14 14 16 16 17 17 16 14 13 13 13 14 14 14
4 3 2 1 1 2 2 4 5 4 0 3 2 2 3 5 5 3 4 3 1 2 3 3 2 2 4 3 4 6 4 3 4 3 4 5 5 5 6 7 8 11 11 13 16 14 14 15 17 19 20 21 21 21 20 20 20 20 20 19 18 17 16 15 15 13 12 13 13 13 13 14 15 17 17 15 14 13 12 12 12 13 14 16 17 18 19 19 18 16 14 13 13 13 13 13 13
3 4 3 1 2 2 3 5 5 3 0 4 2 2 3 4 4 2 3 5 4 2 3 5 4 2 3 4 6 6 6 3 2 2 3 3 4 5 6 7 8 11 12 14 17 17 15 16 17 19 20 21 22 22 21 20 20 20 20 20 19 18 17 17 16 15 14 15 15 15 16 16 16 18 17 16 16 15 15 14 14 15 16 18 20 21 20 20 17 14 12 12 12 11 10 10 10
4 4 2 1 1 3 4 4 1 2 1 3 2 1 5 5 5 4 4 5 4 2 1 3 5 7 7 8 7 4 6 3 2 2 2 3 5 5 5 6 8 11 12 15 19 18 17 17 17 19 20 21 22 22 22 21 20 20 20 20 20 19 19 18 17 16 15 16 16 16 17 17 18 19 18 17 17 16 16 15 15 17 17 17 18 17 17 16 13 11 11 11 10 8 7 6 6
5 5 1 2 2 4 4 3 4 4 4 2 2 7 7 3 3 5 5 5 5 1 3 4 3 9 10 9 9 8 7 5 5 3 2 5 6 6 6 5 7 10 12 15 19 18 18 19 18 20 21 22 23 22 22 21 21 21 21 20 20 20 19 19 18 17 17 18 18 18 19 19 20 20 20 19 18 17 16 15 14 15 14 13 13 13 12 11 10 10 9 9 7 6 5 5 5
3 3 1 1 3 4 4 5 5 5 6 6 2 10 6 2 1 5 4 4 7 7 6 7 1 3 4 6 9 9 8 7 6 6 5 7 9 8 7 6 7 9 11 14 19 19 19 20 20 21 21 23 23 23 23 22 22 22 22 22 21 21 20 19 18 18 17 18 19 19 20 21 22 21 21 19 18 17 15 13 13 13 12 11 11 11 10 9 8 8 8 7 6 5 5 5 5
3 5 2 2 4 4 5 4 5 5 5 3 5 7 3 1 1 4 6 7 10 9 4 3 1 5 3 8 10 7 9 9 7 7 6 9 12 11 9 7 7 9 10 14 18 20 19 20 21 21 22 23 24 24 24 23 23 23 23 23 23 22 21 20 19 19 19 19 20 21 22 23 23 22 22 20 18 16 13 13 12 12 11 10 10 10 9 8 8 8 7 6 5 5 5 5 5
4 7 3 2 4 4 4 4 4 4 4 2 7 6 3 0 3 3 4 6 9 4 5 5 4 4 5 10 8 4 9 10 7 8 8 11 15 14 12 10 8 9 10 13 17 20 20 20 21 22 22 23 25 25 25 25 25 25 24 24 24 23 22 21 21 21 21 21 21 22 23 24 24 23 23 21 18 15 13 13 12 12 11 10 10 10 9 9 8 7 6 5 5 5 5 5 5
5 7 3 2 4 5 4 4 3 2 3 2 5 3 1 4 5 4 4 5 6 5 10 13 7 3 4 6 4 4 5 6 7 10 13 16 18 16 14 14 12 11 11 13 15 18 20 21 22 23 23 24 26 26 26 26 26 26 25 24 24 23 23 22 22 22 22 22 22 22 23 24 24 24 23 21 18 15 14 14 12 13 12 10 10 10 10 9 8 7 6 5 5 4 4 4 4
4 5 2 2 3 5 4 3 2 1 2 3 4 1 1 5 6 4 5 6 10 14 16 12 8 9 12 14 14 14 13 11 14 17 19 21 21 19 17 16 15 14 14 14 15 17 20 22 23 23 24 24 26 27 27 27 27 26 26 25 25 24 24 24 24 23 22 22 22 23 23 23 23 23 23 21 18 15 15 15 13 13 12 11 11 11 10 9 8 7 6 6 5 5 4 4 4
3 2 1 2 4 5 3 2 1 1 4 4 1 3 2 5 6 4 7 9 12 17 19 15 14 16 21 24 21 21 21 20 21 22 23 23 21 20 19 18 17 17 17 16 16 17 19 22 23 24 24 24 25 27 27 27 27 27 27 26 26 26 26 26 25 24 24 24 23 23 22 23 22 22 21 20 18 16 16 15 14 14 13 12 12 11 10 9 8 7 7 7 6 6 5 5 4
2 1 3 4 4 5 4 4 5 5 5 6 8 11 8 7 8 4 4 8 12 16 21 20 17 18 23 25 23 24 23 19 17 18 19 19 20 21 21 21 20 19 19 19 19 19 20 22 23 24 25 25 25 26 27 28 28 28 28 28 28 28 28 27 27 26 26 25 24 23 22 22 22 21 21 20 19 18 17 16 15 15 14 14 13 12 11 10 9 9 8 8 7 7 6 5 5
5 2 3 4 4 6 9 9 8 7 6 9 12 13 10 9 12 9 5 7 10 12 18 21 20 20 20 20 21 25 23 19 16 16 19 21 22 23 24 24 23 22 20 20 20 20 21 21 23 25 25 26 26 26 27 28 30 30 30 30 30 30 30 29 28 27 27 27 25 23 22 22 22 22 21 21 20 19 18 17 17 17 16 15 15 14 13 12 11 10 10 9 8 7 7 6 6
8 6 3 5 6 8 11 13 13 12 12 11 11 12 12 13 16 13 8 9 8 9 15 17 19 20 17 17 17 18 19 18 17 18 20 23 25 26 26 26 26 24 22 20 19 20 22 22 23 25 26 26 27 28 27 28 29 30 30 31 31 31 32 31 30 29 29 29 27 25 23 22 23 23 23 22 22 21 19 19 19 19 18 17 16 15 14 13 12 11 10 10 9 8 7 7 7
7 7 4 6 8 8 12 18 18 15 12 10 11 13 13 15 16 13 10 8 5 11 17 17 21 24 22 23 21 18 17 16 18 21 23 24 26 27 27 26 26 25 22 21 20 19 20 22 23 24 26 28 29 30 29 28 28 29 29 30 31 32 32 32 32 31 31 31 29 27 25 24 24 24 24 24 23 22 21 21 21 21 20 19 18 17 16 14 13 12 11 11 10 9 9 8 8
5 7 9 11 11 9 13 19 16 12 10 11 13 11 13 16 16 15 11 8 8 13 20 22 26 29 28 28 25 24 22 21 22 24 26 26 25 25 24 23 22 22 23 23 22 20 19 20 22 23 25 28 30 31 30 30 30 30 30 29 29 30 32 32 33 33 33 32 31 29 27 26 26 26 26 26 24 23 23 22 23 22 21 20 19 18 17 15 14 13 13 12 11 10 10 9 9
6 7 11 14 14 12 16 20 16 12 9 10 13 13 17 17 16 20 16 15 19 21 24 27 30 30 30 29 26 24 23 23 24 25 28 27 25 23 22 21 19 19 21 23 23 22 20 19 20 22 25 28 30 31 31 32 32 32 31 31 29 29 30 32 33 34 34 33 32 30 29 28 28 28 28 27 26 24 24 23 24 24 22 21 20 19 18 16 15 15 14 13 12 11 10 10 10
7 6 9 15 18 18 20 21 17 14 12 14 16 16 17 14 14 21 20 21 27 28 28 30 30 29 29 28 26 23 23 23 24 25 27 27 26 24 22 21 19 18 20 22 24 23 23 20 19 21 23 26 29 31 32 33 33 34 34 33 32 30 29 31 32 32 33 33 32 31 30 30 29 29 29 28 27 25 25 24 25 25 23 22 21 20 19 17 17 16 15 15 13 12 11 11 11
8 8 9 13 16 17 18 18 18 17 17 20 17 14 17 17 17 22 24 27 29 27 26 26 25 25 24 24 24 21 22 22 22 24 25 25 24 21 20 19 18 18 19 20 22 23 23 21 20 21 22 24 27 29 32 34 34 35 35 36 35 33 31 31 31 31 32 32 32 32 31 31 30 29 29 28 27 26 26 26 26 25 24 23 22 22 20 19 18 18 17 16 14 13 13 12 12
7 8 9 12 12 16 19 20 22 22 22 21 14 11 18 19 15 18 23 22 21 18 17 18 18 20 20 19 20 20 22 22 23 25 25 24 22 20 20 19 19 19 19 18 20 22 21 22 22 22 22 22 24 27 30 32 34 35 36 37 36 35 34 33 33 32 32 32 32 33 33 32 31 30 29 28 27 27 27 27 27 26 25 24 23 23 22 20 19 19 18 16 16 15 14 13 13
9 10 12 14 16 20 23 22 26 25 23 24 16 9 16 18 9 11 20 18 17 18 17 19 19 20 20 20 21 21 23 24 25 26 26 26 24 24 23 22 23 23 22 22 23 23 22 23 23 22 21 21 23 25 28 31 33 34 35 37 37 37 36 34 34 35 34 34 33 34 34 33 32 31 30 28 27 27 28 28 28 27 27 26 24 24 23 20 21 20 18 18 17 16 16 15 14
9 9 10 15 18 22 24 21 25 22 15 19 14 6 13 15 7 14 25 22 20 22 20 20 19 20 22 23 25 24 24 25 25 26 27 27 25 24 25 24 24 24 24 24 24 25 25 26 25 23 22 21 22 23 26 29 31 33 34 36 38 38 37 35 36 37 37 36 36 35 35 34 33 32 31 29 28 28 29 29 29 28 28 27 25 25 24 22 22 21 20 20 19 18 18 17 16
8 6 6 13 14 15 19 19 24 20 9 10 6 1 7 8 9 22 28 22 20 20 19 18 19 23 26 26 27 27 27 27 25 26 26 26 24 23 24 24 24 23 23 23 23 25 26 27 26 26 24 23 22 22 24 27 29 31 33 35 36 37 37 37 38 39 39 38 38 37 36 35 34 34 33 31 29 29 30 30 30 30 29 27 26 25 25 24 24 23 23 22 22 21 20 18 18
8 7 5 9 9 7 14 16 16 12 5 9 7 0 5 4 13 21 19 15 15 17 17 19 22 28 32 32 31 29 29 28 27 26 25 24 23 22 23 22 21 21 21 22 23 24 24 25 26 26 25 25 24 23 24 26 28 30 32 34 35 36 37 38 39 40 40 40 39 39 37 36 35 35 34 33 31 30 31 31 31 31 30 28 27 26 26 26 26 25 25 24 24 23 21 20 19
7 8 5 5 5 3 11 10 5 3 5 12 8 2 5 5 13 16 14 13 16 19 20 23 28 32 36 34 30 28 28 26 25 24 22 21 21 19 18 16 15 17 17 19 22 22 20 21 23 24 24 24 24 24 25 26 27 28 30 33 34 35 36 38 39 39 40 40 40 39 39 38 37 36 35 35 34 32 32 32 32 32 31 30 28 28 28 28 28 27 26 26 25 24 23 22 22
4 6 4 4 4 4 9 7 5 3 3 11 8 2 6 6 9 13 16 18 20 23 24 28 32 33 35 34 28 26 25 24 22 20 17 14 12 11 11 9 10 13 15 16 17 19 18 18 19 20 21 22 23 24 24 25 26 27 29 31 33 34 36 37 37 38 39 39 39 39 39 39 39 38 37 36 36 34 34 33 33 32 32 31 30 29 30 30 30 29 28 27 27 26 25 24 24
4 5 4 5 5 4 5 2 7 6 3 7 7 3 5 5 8 15 20 22 22 22 26 31 32 32 32 31 28 26 25 22 17 11 7 4 3 5 6 6 7 9 12 12 12 15 15 15 15 16 17 18 19 21 23 24 25 26 28 29 31 32 34 35 36 36 37 38 38 39 39 39 39 39 38 37 37 36 35 35 34 33 33 33 32 31 32 32 32 31 30 29 28 28 27 26 26
3 4 5 5 5 6 4 2 2 2 3 4 7 6 7 7 9 16 19 22 22 22 26 27 27 29 30 29 28 25 20 14 12 10 7 6 6 7 9 11 10 9 10 10 9 10 11 12 12 12 12 13 14 17 19 21 23 25 26 27 28 30 31 33 33 34 35 36 37 38 38 39 39 39 38 38 38 37 37 36 36 34 34 35 34 34 34 34 34 33 31 30 30 30 29 28 27
5 5 4 5 6 6 6 5 8 7 5 7 8 8 9 7 6 12 19 23 24 24 25 25 26 27 30 31 25 17 12 15 17 13 13 12 10 9 9 10 10 9 9 7 5 6 7 8 10 9 9 9 10 12 15 16 19 23 24 25 26 27 29 31 31 32 33 34 35 36 37 38 38 38 38 38 38 38 38 38 38 37 36 36 36 36 36 36 36 35 33 32 32 32 31 29 28
9 9 7 7 7 6 8 8 8 9 9 8 8 9 9 9 8 11 20 25 26 26 23 24 25 24 26 22 12 15 18 22 19 15 15 13 12 10 6 2 1 3 3 3 4 3 2 2 5 5 4 5 6 7 10 12 15 19 21 23 25 26 27 29 29 30 31 32 33 34 35 36 37 37 37 38 38 39 39 39 39 39 39 38 38 38 38 38 37 37 35 34 34 34 33 32 31
11 9 7 8 6 6 8 9 9 8 7 6 6 8 8 10 10 14 24 25 21 19 18 24 25 19 14 8 16 21 24 25 21 19 18 17 18 18 15 12 8 7 7 7 6 6 5 3 1 3 3 2 2 2 5 7 8 12 15 18 21 22 24 26 27 29 29 30 31 32 33 34 35 35 35 36 38 38 39 40 41 41 41 41 39 39 39 38 38 38 37 35 36 36 36 35 34
9 7 6 6 5 8 8 10 11 5 3 4 5 8 7 9 13 18 23 17 12 16 18 19 13 7 12 19 23 24 27 26 24 23 21 20 20 21 21 20 18 17 16 14 13 11 9 7 6 5 7 7 5 3 3 4 4 6 9 11 14 16 19 21 22 24 25 27 29 30 32 33 34 34 35 35 36 37 39 40 41 42 43 42 41 39 39 38 39 40 39 38 38 38 38 37 37
7 5 5 5 5 7 7 8 7 3 2 4 7 7 6 11 16 18 17 11 14 20 12 5 15 22 23 24 25 26 26 25 25 24 22 22 22 22 23 23 23 23 21 19 17 15 13 12 11 8 8 9 8 5 3 4 4 4 5 7 10 11 13 16 17 18 19 21 23 25 27 28 29 31 31 33 34 36 38 39 41 42 44 44 42 41 40 40 40 41 42 41 40 39 39 39 40
4 3 4 5 5 5 5 4 6 7 4 6 8 6 5 11 15 14 14 14 14 6 14 26 28 27 25 26 26 25 25 23 23 22 22 23 23 24 25 25 25 24 25 24 22 20 18 18 16 13 11 10 9 8 4 2 3 3 3 5 7 9 10 13 15 16 17 18 18 19 21 22 23 24 26 27 29 32 34 36 38 41 43 44 44 42 42 42 42 43 43 43 43 43 42 42 42
4 5 5 6 6 6 5 4 7 6 6 5 5 4 5 7 7 6 7 13 7 13 26 27 26 26 26 26 25 25 25 23 23 24 25 26 26 27 26 26 26 27 28 27 26 25 23 22 21 19 17 14 13 12 9 6 6 5 5 4 4 5 6 9 11 13 14 15 15 15 16 16 18 19 20 22 23 25 28 30 33 37 41 43 44 44 43 43 43 43 44 45 46 46 45 44 43
5 5 6 6 5 5 5 6 6 4 4 2 3 3 4 4 6 6 5 9 1 16 20 18 22 24 24 25 23 24 25 25 26 26 27 28 29 28 27 27 27 28 29 27 27 27 26 26 25 24 23 21 20 18 16 14 12 11 10 9 7 7 7 7 9 11 13 15 15 15 15 15 15 16 16 18 19 20 22 24 27 31 36 40 43 44 44 44 44 44 45 46 47 47 46 46 45
4 3 2 2 2 3 4 5 3 1 4 4 1 2 5 4 4 8 10 7 4 13 11 12 18 21 23 24 22 22 23 24 26 27 28 29 30 30 30 30 29 30 29 28 27 28 28 28 28 28 27 26 25 24 22 21 18 16 14 12 11 9 8 7 6 7 11 14 16 16 17 16 15 15 15 16 16 17 18 19 22 25 30 35 39 42 43 44 44 45 45 46 47 47 48 48 48
3 2 1 2 2 3 3 2 2 3 4 5 4 4 5 5 5 10 13 6 8 11 8 9 14 21 24 22 21 22 22 23 25 27 28 29 30 30 31 31 31 30 29 28 29 29 30 30 29 29 29 29 28 27 26 24 23 21 18 16 14 11 10 8 7 5 7 10 13 15 16 16 15 15 14 15 15 16 16 17 18 20 24 29 34 38 41 42 43 44 45 46 46 47 49 50 50
2 1 1 2 1 2 2 2 4 4 4 5 5 6 3 5 5 9 9 4 9 8 7 7 11 19 23 21 21 20 21 24 25 27 27 28 29 29 29 29 29 29 28 28 29 28 28 28 27 27 27 27 27 26 25 25 24 23 21 19 17 15 13 11 10 8 7 8 11 13 15 16 17 16 15 14 14 15 15 15 16 18 20 23 28 34 37 39 41 43 45 46 47 48 49 50 50
2 1 1 1 1 3 3 4 3 3 4 5 5 6 3 4 6 5 1 5 7 6 6 7 11 18 20 20 20 18 20 23 25 27 26 26 28 27 27 26 26 27 27 26 26 26 25 25 24 24 24 24 23 23 23 23 23 23 22 22 20 19 17 16 15 12 10 8 9 11 14 16 18 18 18 16 15 14 15 15 15 16 17 19 23 28 32 36 39 41 43 45 47 48 48 50 51
1 0 2 2 4 4 3 3 2 1 3 6 8 10 7 3 5 2 2 5 9 8 6 7 12 17 18 18 19 18 19 21 23 25 25 25 25 25 24 24 24 24 23 23 23 23 23 23 23 22 22 22 21 21 21 21 21 21 22 22 22 21 21 20 19 18 16 13 11 10 11 14 16 19 20 20 18 16 16 16 15 15 15 17 19 22 27 31 35 38 41 43 46 47 48 49 51
1 2 2 4 4 1 1 1 1 1 4 5 5 7 10 4 3 1 3 6 8 9 8 8 10 15 18 17 17 19 19 20 22 24 23 23 22 22 22 21 21 21 21 21 21 21 21 21 21 21 21 21 21 21 20 20 20 20 20 20 21 22 22 22 22 21 20 18 15 13 12 12 14 16 19 21 21 20 19 17 16 16 15 15 16 18 20 24 29 33 37 41 44 46 47 47 49
3 2 1 2 3 1 0 1 1 3 5 3 4 3 5 5 4 5 2 8 8 8 11 12 13 16 18 16 17 19 20 21 22 22 22 21 21 21 20 20 20 20 20 20 19 19 19 19 19 20 20 20 20 20 20 19 19 19 19 19 21 22 22 23 23 22 21 20 18 17 15 14 13 13 15 18 20 21 22 21 19 17 17 16 15 16 17 19 23 27 32 37 42 45 46 47 48
5 4 4 3 1 2 3 3 3 4 3 1 4 4 1 4 4 3 5 10 12 16 19 19 20 19 18 17 17 19 20 21 21 21 20 20 19 19 18 18 18 18 18 18 18 18 18 18 18 18 18 18 18 18 18 18 18 18 19 19 20 21 22 23 23 23 22 22 20 19 18 17 15 14 13 14 16 19 22 23 22 20 19 18 17 16 17 17 19 22 26 31 36 41 44 46 48
6 4 4 5 3 3 4 4 4 3 2 2 1 1 1 3 1 4 10 14 17 21 22 22 22 20 18 18 17 18 19 19 19 18 18 17 17 16 16 16 16 16 16 16 17 17 17 17 17 17 17 17 17 17 17 17 17 17 18 18 19 19 20 21 22 22 23 22 22 21 20 19 18 16 15 14 14 16 19 21 22 21 20 20 20 19 18 18 18 20 23 25 29 34 39 44 46
3 1 2 3 3 3 3 4 4 2 3 3 2 2 4 1 4 8 11 14 17 18 18 19 19 17 17 17 16 17 18 17 16 15 15 14 14 14 14 14 14 15 15 16 16 16 16 17 16 16 16 15 15 16 16 16 16 17 17 17 18 18 18 19 20 21 21 22 22 22 21 20 19 18 17 17 16 15 17 19 20 21 21 20 20 20 20 20 19 20 22 23 25 27 32 39 43
1 2 2 3 2 2 2 5 3 2 3 5 4 4 5 1 4 7 8 10 11 10 12 14 14 14 15 15 14 15 15 14 12 12 12 11 12 12 12 12 13 13 14 15 15 15 16 16 16 15 15 15 16 16 16 15 15 15 16 16 16 17 17 18 19 20 20 21 21 21 21 20 20 19 19 18 18 18 17 18 19 20 20 20 20 20 21 21 21 22 22 23 24 24 27 32 37
3 2 2 2 1 1 1 2 2 3 5 5 5 7 6 4 2 3 7 8 8 6 7 10 11 12 13 13 12 12 11 10 9 9 9 9 9 10 10 11 11 12 12 13 14 15 15 15 16 16 17 18 18 17 16 15 15 15 15 15 15 16 16 17 18 19 20 20 20 20 21 21 21 21 20 19 19 19 19 19 19 19 20 19 20 20 21 21 22 23 23 24 24 24 26 29 32
3 2 0 1 0 1 0 1 2 4 6 4 5 8 7 4 3 4 6 7 7 6 6 6 7 9 10 10 9 8 7 6 6 6 6 7 7 7 8 9 10 11 11 12 13 14 15 15 16 17 18 19 18 18 17 16 15 15 14 14 13 13 14 14 16 17 18 20 21 21 21 21 22 22 22 22 21 21 20 20 20 21 21 20 19 19 20 21 22 23 24 24 24 24 26 28 29
2 2 1 1 3 3 2 1 2 4 5 4 5 7 4 3 1 4 7 7 7 7 5 5 5 9 9 7 6 5 4 4 4 5 5 5 6 7 8 9 10 11 12 13 14 14 16 17 18 18 19 19 19 19 18 18 17 17 17 16 15 14 13 12 12 13 14 16 18 20 21 22 23 23 24 24 23 23 22 22 21 21 22 22 21 20 20 20 21 22 23 24 25 25 26 28 28
1 1 2 2 1 2 1 2 3 4 5 5 5 6 3 2 3 5 8 7 7 7 6 5 7 10 8 6 6 4 3 3 3 4 4 5 5 6 7 8 10 11 12 13 14 14 15 17 18 19 19 19 19 19 19 19 20 21 21 21 20 19 18 17 16 14 14 13 14 15 17 19 21 22 24 25 25 25 24 24 22 21 21 21 22 22 21 20 21 22 23 24 25 25 27 28 28
3 3 2 2 0 1 3 5 4 3 4 4 5 7 3 1 1 4 7 5 6 8 8 7 9 11 8 6 6 5 3 2 2 2 3 4 6 7 8 9 10 12 13 14 14 15 15 16 17 17 17 18 18 19 20 21 22 23 23 23 23 23 22 22 21 20 19 17 16 16 16 16 17 19 21 23 24 25 26 26 25 24 23 22 22 22 22 22 22 22 23 24 25 26 27 28 29
Wind_Direction
302 307 313 324 330 333 332 326 284 237 204 249 259 30 80 53 157 293 25 79 87 54 24 3 328 319 301 311 308 301 297 273 292 344 169 176 310 331 351 202 295 247 241 235 214 217 212 210 209 209 212 212 213 209 207 204 196 190 189 189 189 190 192 196 198 198 196 197 195 190 193 200 204 190 185 179 177 188 170 156 152 149 156 156 154 161 163 176 188 214 218 208 205 199 210 219 186
305 310 321 337 340 330 315 333 299 272 241 244 345 48 85 181 91 23 37 48 51 22 348 347 322 293 273 286 285 290 297 255 268 9 91 8 337 331 4 220 244 228 244 247 216 217 217 215 213 212 212 212 213 211 209 206 200 195 195 195 196 198 201 205 206 206 204 205 198 191 200 202 200 196 191 185 186 189 173 160 155 150 158 163 163 174 189 216 232 255 255 244 240 237 235 235 232
313 319 354 349 326 288 283 306 249 298 305 318 38 42 14 358 44 42 46 62 42 348 334 334 315 292 265 254 271 271 286 305 354 30 66 299 326 328 341 245 224 222 239 250 218 217 220 218 217 215 214 213 213 212 209 208 204 201 201 201 203 206 209 210 209 210 209 208 201 198 204 205 205 200 193 193 195 190 180 168 160 157 163 172 180 203 225 247 261 271 273 278 283 267 243 238 237
320 327 64 348 296 254 247 260 230 297 298 323 54 89 79 45 35 41 41 62 339 313 329 323 296 247 277 251 293 293 280 352 6 359 74 267 304 303 296 253 223 222 229 241 224 217 220 219 219 218 217 216 213 214 211 208 206 205 205 206 209 212 214 214 213 213 212 210 204 202 204 208 208 203 199 198 202 197 191 183 176 174 179 191 204 227 246 262 275 279 280 286 294 289 270 250 240
2 13 66 76 281 271 272 290 268 262 273 329 32 43 66 61 41 43 5 359 214 250 302 296 273 227 276 263 272 296 308 29 281 294 303 292 296 278 270 248 225 224 228 233 227 218 220 219 219 220 220 218 216 217 214 211 209 207 207 209 213 215 218 218 218 218 217 214 207 205 206 209 207 206 205 203 212 212 205 205 206 204 205 214 228 249 265 275 282 285 283 280 282 279 271 259 249
31 12 356 301 269 296 305 274 276 256 269 14 9 357 23 32 37 30 324 308 182 197 271 248 276 297 278 252 235 241 280 296 304 295 294 305 294 276 261 244 229 227 229 228 227 219 221 220 218 222 222 221 219 220 219 216 213 210 210 212 215 216 219 220 220 219 217 214 208 208 208 210 206 207 209 211 224 226 217 222 231 232 232 239 250 264 275 280 283 285 284 279 275 271 265 258 254
47 336 289 280 262 269 277 262 275 273 7 45 19 348 351 6 20 1 313 316 142 183 210 209 267 303 280 248 235 234 232 267 295 288 290 303 289 284 258 243 234 231 231 226 228 223 221 221 219 222 224 223 222 224 224 221 218 215 213 214 216 217 218 218 217 217 216 214 210 209 209 212 210 211 216 222 235 238 232 236 243 245 248 255 262 270 275 279 281 283 283 278 272 268 263 259 256
52 326 285 291 278 192 233 261 261 261 181 81 64 340 336 353 2 341 310 311 239 209 184 200 243 276 270 244 243 230 209 268 294 291 309 310 296 291 261 248 235 234 235 223 227 228 224 222 220 222 224 225 224 226 227 225 223 219 216 216 218 218 217 216 215 216 216 214 212 209 210 214 214 218 225 231 238 239 239 242 247 250 253 258 262 267 271 275 278 281 278 275 272 266 261 259 258
10 319 305 284 288 244 238 247 243 256 301 78 53 328 357 352 349 336 304 298 282 283 185 178 177 216 288 279 268 232 214 247 276 298 343 341 330 313 274 254 234 234 236 223 226 232 228 225 222 221 223 226 225 225 227 227 227 226 222 219 218 218 217 216 214 216 217 216 214 211 212 216 220 226 231 235 240 246 249 252 258 260 259 260 261 262 265 269 272 273 271 271 270 263 259 256 255
294 262 298 314 288 274 259 252 263 335 344 100 149 20 36 16 358 330 299 305 310 349 150 164 193 234 280 300 288 228 202 239 264 275 349 344 345 331 301 267 239 233 234 225 229 235 233 231 226 223 224 226 228 226 225 225 226 228 228 224 221 219 218 217 218 219 219 218 217 215 217 220 226 234 236 240 248 255 260 264 268 267 262 259 258 259 260 261 261 260 262 265 262 256 251 247 244
274 224 243 320 287 271 284 342 354 332 331 318 150 102 79 52 7 311 277 281 295 312 201 198 211 241 261 280 275 250 230 256 268 265 319 330 338 327 314 288 254 238 235 228 231 238 235 235 232 227 226 226 228 227 225 224 224 226 228 228 226 225 222 221 223 223 220 221 219 219 222 224 230 239 243 248 256 262 266 266 259 257 256 252 251 252 251 247 246 247 248 247 244 240 237 235 234
283 246 201 274 282 280 320 356 324 316 326 307 73 96 93 89 18 291 305 323 310 306 259 214 190 288 263 275 278 261 236 241 257 260 294 322 330 322 310 297 275 249 239 231 233 239 237 236 236 232 230 228 227 226 226 224 224 225 226 228 229 230 228 226 228 226 222 223 225 226 229 232 236 244 252 257 263 267 269 260 248 245 246 241 240 242 238 234 233 231 227 225 225 229 231 235 235
273 308 339 276 288 296 318 322 298 307 308 315 93 104 100 91 260 305 346 338 306 306 308 187 35 355 292 281 286 260 230 241 254 248 272 313 322 318 305 295 286 267 249 236 236 241 241 238 237 237 235 231 228 226 226 225 225 226 227 227 228 230 230 230 230 229 227 229 231 234 237 240 244 251 259 264 267 270 263 252 244 241 238 232 232 232 225 220 218 218 217 218 222 226 230 233 235
279 325 339 281 307 297 288 268 283 311 300 3 97 126 119 102 267 314 330 306 298 321 358 312 315 341 286 280 283 249 240 251 247 236 264 302 313 311 300 293 288 279 264 247 241 243 245 242 239 239 239 234 228 227 225 226 226 226 227 228 228 229 230 231 232 232 232 235 237 239 241 245 249 253 259 264 267 266 254 245 242 238 233 225 223 220 213 209 210 214 214 217 220 223 225 227 230
291 331 329 258 297 286 265 245 274 325 303 30 97 120 76 301 274 245 250 268 283 298 315 308 291 270 275 284 307 320 280 250 243 253 277 294 301 301 294 291 286 278 269 259 250 247 247 246 243 239 240 237 230 229 227 226 227 227 227 227 228 229 230 232 233 234 235 238 240 241 243 246 248 252 257 260 261 257 246 240 238 236 231 221 218 215 210 207 207 207 207 212 217 219 223 224 226
292 324 317 252 281 282 271 251 235 214 300 55 97 340 309 314 313 245 241 251 265 283 293 290 269 264 268 271 277 289 287 273 272 275 283 289 292 293 288 285 282 275 269 263 256 252 250 248 248 244 242 239 234 232 231 229 228 228 227 226 228 229 231 233 233 234 236 239 241 242 244 246 248 250 254 256 255 247 237 235 235 234 228 221 220 218 213 208 204 202 204 209 212 215 218 222 226
295 311 259 264 266 262 276 274 265 283 320 1 45 316 311 314 320 257 250 253 261 284 286 274 269 268 270 275 275 277 279 279 282 282 283 285 287 287 283 279 275 272 269 266 261 254 251 249 249 250 247 243 238 234 234 233 231 230 229 228 228 230 231 234 235 236 237 239 241 242 243 245 247 248 249 250 249 241 234 233 232 231 227 223 224 222 217 211 207 204 207 209 210 214 216 220 226
239 238 224 249 248 256 325 333 323 341 334 334 327 326 325 324 331 298 253 256 263 281 283 283 280 270 272 279 274 271 277 279 282 286 285 284 283 284 284 281 276 271 269 266 263 258 254 250 249 250 251 249 243 238 236 235 234 233 232 231 230 230 232 233 235 237 238 239 240 242 241 243 245 245 245 244 242 237 234 232 230 229 225 224 225 224 220 215 212 209 210 212 213 217 219 225 230
218 237 245 248 252 280 309 311 312 331 322 317 314 318 327 326 323 309 275 271 280 287 285 289 289 281 282 281 270 267 273 274 275 281 284 286 285 286 286 286 282 274 271 268 265 264 260 254 250 247 250 252 249 245 240 236 236 236 235 234 233 232 232 233 234 236 238 239 241 241 240 240 242 242 241 238 236 234 232 231 229 228 226 224 224 223 221 218 217 215 214 215 218 222 225 231 236
217 224 247 250 260 287 299 307 312 314 311 312 309 317 324 310 304 294 278 278 275 270 276 287 289 287 294 298 292 280 273 271 272 276 279 283 286 286 286 286 286 282 280 276 269 265 261 257 253 249 248 249 249 248 245 240 238 238 236 235 234 233 233 232 233 235 236 239 241 240 239 239 240 241 239 236 233 230 228 228 228 226 225 224 222 222 221 221 221 220 219 219 224 227 229 235 239
211 208 228 266 285 302 298 304 308 309 313 315 310 313 309 300 297 287 281 284 261 255 268 277 282 287 295 300 304 300 288 280 279 280 278 280 282 284 285 284 284 286 285 279 272 264 260 259 256 253 249 247 246 247 247 245 243 243 240 237 235 234 234 233 232 233 235 238 240 239 239 238 239 239 238 235 231 228 226 225 226 226 225 224 222 222 222 222 223 222 222 224 227 231 234 236 240
226 244 251 265 279 285 284 293 301 310 315 306 300 297 296 301 296 284 277 268 258 266 275 278 280 286 291 293 296 295 292 286 283 282 280 281 283 285 286 284 278 277 277 276 276 272 264 260 257 255 252 248 246 246 247 246 245 245 244 242 240 237 235 234 233 233 234 236 238 239 238 237 238 238 236 235 231 229 227 225 226 227 226 225 223 222 222 222 222 222 223 226 228 232 235 237 239
222 252 257 268 278 281 285 292 298 306 309 295 287 285 291 297 290 284 275 264 271 275 277 280 281 284 288 291 292 290 287 283 279 277 278 282 286 289 289 286 279 271 269 271 275 276 269 262 256 253 250 248 247 246 246 244 243 245 246 246 245 243 239 237 236 235 236 236 237 239 239 238 237 237 236 234 231 229 228 227 227 228 227 226 225 224 224 222 222 222 223 227 229 233 236 237 239
239 249 264 276 279 279 284 289 291 293 292 283 281 283 283 281 287 289 280 272 277 278 278 278 280 282 283 286 288 287 285 281 278 275 275 278 282 288 289 285 282 272 262 266 273 275 273 268 260 254 250 248 248 247 246 244 244 244 245 245 246 247 244 242 240 239 239 238 238 239 240 240 239 239 239 236 233 230 229 229 228 229 228 226 226 226 225 222 222 223 224 227 229 232 234 235 237
254 258 271 279 277 278 287 293 290 286 283 278 274 271 271 275 285 286 282 281 282 281 281 279 281 282 279 279 283 284 282 279 277 275 274 276 279 283 285 285 282 272 263 267 274 274 276 275 268 260 253 250 248 247 247 246 246 245 244 244 245 247 246 244 245 244 242 240 240 241 242 242 242 242 241 239 236 232 231 231 230 230 230 228 225 226 226 221 222 224 225 227 229 231 233 234 234
254 280 299 305 300 293 293 291 287 283 278 275 266 256 266 277 288 283 278 282 287 286 281 278 282 282 278 277 280 282 281 278 276 276 276 277 277 276 281 285 281 277 276 275 274 275 277 276 272 266 261 256 250 248 248 247 247 246 246 245 245 247 246 244 246 247 247 245 244 245 245 245 245 245 245 243 239 235 234 234 233 231 231 231 226 227 228 222 222 226 226 228 230 231 233 233 233
284 318 319 306 297 290 284 278 276 273 269 266 260 253 266 274 284 277 277 283 287 287 284 283 281 276 275 279 283 283 280 278 277 277 276 272 271 273 279 282 280 281 281 277 275 278 277 274 273 272 268 263 256 251 249 249 248 248 249 248 247 247 247 245 245 248 250 250 249 248 248 247 247 247 247 246 242 238 237 237 237 235 233 233 229 228 230 224 224 228 227 229 232 233 234 233 233
302 338 322 293 285 281 275 271 268 265 262 257 249 248 271 275 258 252 273 287 286 280 277 279 280 275 276 280 283 283 279 279 278 276 273 271 270 272 277 282 284 285 282 280 280 279 275 272 271 271 270 268 262 256 253 250 249 249 249 249 248 248 248 246 246 248 250 251 251 250 249 249 248 248 249 248 245 241 240 240 241 240 237 236 232 230 231 226 225 228 227 228 232 233 233 232 232
311 322 303 282 279 273 268 263 258 258 248 227 202 111 262 257 244 252 270 285 285 280 276 279 283 280 279 279 281 281 280 280 279 276 275 277 277 276 280 285 287 287 286 287 285 279 274 271 269 267 267 266 264 260 257 254 250 249 248 249 249 249 249 248 248 249 250 250 251 251 251 250 249 249 249 249 247 245 244 243 243 243 242 239 236 233 232 229 228 229 228 229 231 232 232 232 232
288 266 256 275 285 273 269 264 246 248 206 161 133 101 246 246 262 268 280 290 295 295 291 290 286 282 281 281 281 281 282 282 282 281 280 280 282 283 286 286 283 285 289 291 288 281 276 271 268 267 265 263 264 262 259 256 253 250 249 249 249 249 250 250 249 249 250 250 251 252 253 253 251 249 249 249 248 247 246 245 245 245 245 243 239 236 234 232 231 231 230 230 232 233 233 233 234
269 265 250 250 278 265 273 273 190 172 151 143 127 245 243 261 272 284 304 310 310 303 296 291 284 282 282 283 285 286 287 288 287 289 288 284 283 289 299 293 279 276 282 288 288 283 278 275 271 269 267 265 263 261 259 258 255 252 250 249 248 248 249 249 249 249 250 251 252 253 254 254 253 251 249 248 248 248 248 247 247 246 246 245 241 238 236 235 235 234 233 233 233 234 234 234 234
253 267 267 227 245 250 279 286 153 168 189 151 135 242 242 243 272 297 303 298 297 294 292 286 281 280 282 287 292 294 296 296 295 297 301 295 282 283 304 307 284 275 275 280 284 282 279 277 274 270 268 265 263 261 259 258 256 253 250 248 247 247 247 247 248 248 250 251 252 253 254 254 254 252 249 248 249 249 250 250 249 248 247 246 243 240 238 237 237 236 235 234 235 236 236 235 235
232 233 257 249 253 259 285 301 163 169 147 172 186 229 250 241 261 273 275 276 275 274 276 275 277 280 286 292 296 298 300 303 310 319 320 315 274 260 275 288 281 273 271 272 276 279 279 278 275 271 268 266 264 262 258 255 254 252 249 247 245 245 245 246 247 247 248 250 251 253 255 255 255 254 251 250 251 251 251 252 251 249 248 248 245 242 240 239 239 238 236 235 235 237 237 237 237
243 235 250 258 274 291 302 342 267 192 142 218 231 235 254 248 252 265 272 279 275 267 268 272 280 287 291 293 297 303 309 330 3 10 356 332 307 283 269 268 268 266 270 270 266 268 273 276 276 273 271 270 265 262 259 256 253 251 249 246 244 244 244 246 246 247 248 250 252 254 255 256 256 256 255 254 253 252 252 253 252 251 249 248 246 244 241 239 239 238 236 236 236 237 238 239 240
267 269 276 284 284 299 296 294 309 305 279 274 272 267 277 282 288 294 291 287 278 272 275 281 283 284 288 291 302 325 1 36 36 19 4 351 335 314 286 271 268 267 266 256 239 247 259 267 272 275 278 277 269 264 261 256 251 248 247 245 244 244 244 245 246 247 249 251 252 254 256 257 257 258 258 257 255 253 252 253 253 252 250 249 247 244 241 239 238 238 236 236 237 238 239 240 241
263 267 272 282 280 289 287 278 286 291 284 283 284 286 299 309 310 296 284 278 273 275 283 286 281 277 281 293 339 33 52 56 49 40 36 34 34 31 28 56 229 239 221 196 191 201 209 246 273 280 286 283 274 266 263 259 252 248 249 250 249 249 249 249 249 250 250 251 253 254 257 258 258 258 258 257 255 253 252 252 253 253 251 250 248 246 244 241 240 240 239 237 236 236 237 237 239
265 273 274 283 290 282 280 283 284 289 290 282 288 296 305 309 301 284 278 276 277 280 280 274 273 276 287 352 50 62 67 64 58 55 57 61 61 58 63 74 88 98 100 108 115 115 111 103 2 336 352 357 333 289 273 270 265 260 259 260 259 258 258 257 256 254 253 253 254 255 257 259 259 259 258 257 255 253 252 251 251 252 252 252 250 249 248 245 244 243 241 238 237 237 236 236 237
279 286 291 296 289 277 278 282 282 293 305 288 299 299 299 298 286 277 278 280 279 272 266 268 284 351 38 55 64 71 72 65 58 55 54 59 63 64 66 68 71 75 81 88 91 93 99 101 85 36 20 34 41 17 339 321 300 281 276 273 272 270 268 268 267 265 262 260 260 260 261 263 263 263 262 260 258 256 254 252 251 251 252 253 252 251 250 247 244 243 241 238 237 237 238 238 239
284 292 300 292 274 281 279 272 291 356 11 302 304 298 297 288 276 273 278 277 270 269 275 12 54 60 58 60 66 70 67 59 57 54 52 56 61 67 68 67 68 70 74 78 81 84 88 90 88 68 38 41 48 42 15 341 324 295 279 272 272 274 274 276 276 275 274 271 269 269 269 270 270 271 270 268 266 262 259 256 254 253 252 252 252 251 250 248 245 243 241 240 238 236 236 238 240
261 257 268 271 272 287 273 279 344 355 315 290 294 291 281 275 270 270 267 255 260 295 60 69 72 71 66 66 68 70 68 66 64 61 59 60 61 64 66 66 67 68 68 69 69 72 75 78 79 73 59 56 55 54 54 5 340 321 297 277 277 280 280 282 284 286 287 287 285 282 280 281 280 279 278 275 272 269 265 262 259 257 255 254 252 251 250 249 248 245 243 241 239 237 235 236 239
261 242 241 257 268 273 277 325 350 332 306 297 310 305 257 259 285 299 265 246 247 73 75 73 75 77 75 73 70 69 69 70 70 68 65 64 63 63 63 63 63 63 61 60 60 62 63 65 65 63 60 60 59 58 61 58 40 25 17 8 338 317 309 306 306 308 305 302 299 297 295 295 292 290 287 284 280 276 272 267 264 261 259 257 255 253 251 250 250 248 247 244 242 240 239 238 239
271 252 242 258 284 295 310 342 352 336 302 284 19 352 252 263 322 317 280 259 285 78 80 78 79 82 80 76 72 70 70 70 71 70 69 68 66 65 64 63 63 62 61 59 59 59 58 58 57 57 55 54 54 53 53 53 48 40 33 30 24 10 359 346 335 332 327 320 316 316 315 311 308 305 300 295 290 285 280 274 268 264 262 260 258 256 253 251 250 250 249 246 245 244 242 240 240
258 242 239 285 344 331 323 344 358 310 265 259 10 332 260 267 285 271 263 255 98 83 81 83 87 87 83 79 76 73 71 70 71 70 71 71 69 67 65 64 64 64 64 62 62 61 59 57 55 56 55 53 51 49 48 47 45 41 38 34 30 21 15 2 339 329 320 317 318 321 323 322 321 318 312 306 301 295 289 282 275 268 264 261 260 258 256 254 252 251 250 249 248 246 243 241 241
237 221 334 10 9 321 317 326 255 243 277 277 232 211 256 270 244 249 254 232 103 91 85 85 89 87 82 78 76 77 76 73 71 70 70 71 70 68 66 65 65 65 65 63 61 59 57 55 53 52 52 50 48 45 44 43 40 39 36 33 30 24 19 11 357 342 316 311 315 320 325 328 328 326 323 318 312 306 300 293 285 277 269 264 261 258 257 256 255 253 251 250 248 246 243 243 243
227 164 43 35 37 304 292 267 254 266 301 282 209 181 235 278 256 249 243 161 99 98 97 87 85 84 82 79 75 75 78 80 78 73 71 71 72 70 67 65 64 63 62 61 59 58 56 54 52 49 47 45 43 41 40 38 36 34 32 30 27 23 17 13 7 3 347 325 322 324 328 332 332 330 331 329 324 318 312 305 299 289 279 271 265 261 259 257 256 253 252 250 248 247 245 244 244
196 145 38 37 221 242 241 237 255 287 279 261 223 181 190 282 272 257 208 115 116 114 102 91 80 77 78 81 79 73 72 77 80 79 74 72 72 71 68 65 62 60 59 57 57 54 52 50 46 44 44 42 41 39 37 36 33 30 29 27 26 23 19 16 12 8 1 343 329 327 328 331 333 332 331 332 333 330 323 317 310 302 294 283 273 266 262 259 256 254 252 251 250 249 247 245 244
153 51 354 316 255 227 211 211 212 294 264 257 237 195 178 278 286 262 78 116 138 131 121 112 87 76 74 74 78 78 73 74 78 81 78 74 72 71 69 65 60 57 54 51 49 45 43 41 39 39 40 39 38 38 37 36 34 30 28 26 26 25 23 21 18 13 8 359 348 337 329 329 331 331 331 329 330 331 327 322 317 311 305 295 285 275 268 264 260 257 254 252 251 250 248 247 245
78 55 21 336 297 232 139 169 120 224 249 269 267 188 179 212 279 277 56 82 122 138 139 127 98 84 80 75 77 80 79 78 79 79 77 74 70 66 63 59 55 50 46 43 40 37 36 35 35 34 35 36 35 35 35 34 34 32 30 28 27 27 26 26 25 22 16 8 0 352 342 335 330 328 327 327 327 326 323 321 319 316 311 303 296 288 279 272 266 261 256 253 251 251 250 248 246
109 114 91 352 319 323 246 212 165 226 235 266 9 77 179 218 259 274 12 57 69 92 103 106 102 91 85 81 81 82 81 79 78 75 71 68 63 58 53 49 45 41 40 38 37 37 36 35 34 33 33 33 31 30 30 29 31 32 33 31 29 27 26 27 28 27 24 18 11 4 357 350 343 333 323 320 321 320 320 320 318 316 312 307 301 294 287 281 274 268 261 256 253 251 250 249 248
161 163 152 154 237 268 255 243 229 242 240 277 37 50 297 249 266 297 66 71 67 73 82 92 96 94 91 89 86 85 83 80 77 72 67 60 56 52 48 45 43 41 41 40 39 40 40 40 39 37 36 33 29 28 26 26 29 31 32 30 28 26 23 23 24 24 24 22 19 15 9 3 358 350 336 323 316 313 315 318 318 316 312 307 301 295 290 284 280 274 268 263 258 254 252 251 251
188 188 158 167 200 226 244 256 249 250 268 304 13 76 242 237 192 94 93 90 82 82 88 92 93 95 98 97 93 89 85 82 77 70 64 58 53 49 47 45 43 43 43 41 41 42 42 43 43 41 39 35 31 29 27 27 29 29 28 26 23 22 19 18 17 17 15 14 14 14 13 9 4 358 352 343 330 318 315 318 319 318 315 310 303 296 291 286 282 279 274 269 265 260 255 253 252
221 146 127 206 211 207 255 268 248 252 299 291 246 220 253 216 115 104 99 93 87 90 95 95 96 102 102 97 93 91 87 82 75 67 61 57 53 50 48 47 45 44 44 43 43 43 43 42 42 41 40 37 35 32 30 29 26 24 21 19 17 15 13 10 9 7 6 5 5 5 7 7 4 360 357 354 349 338 327 323 322 320 318 314 307 300 293 287 283 280 277 274 270 266 261 257 254
37 83 187 233 203 136 271 277 267 265 277 268 247 257 275 234 118 102 94 90 88 90 93 94 99 104 100 95 94 94 91 83 73 66 62 56 51 48 47 48 47 46 47 48 46 44 42 41 40 41 39 38 37 36 34 30 26 22 18 15 12 8 5 2 1 360 359 358 358 358 359 360 359 358 357 354 353 349 341 333 327 324 321 316 311 304 297 291 286 281 279 277 275 271 267 263 259
113 169 234 292 357 69 174 256 275 267 260 256 248 263 273 258 218 119 100 95 95 95 93 95 97 96 94 96 100 99 90 81 73 67 62 56 52 48 47 47 47 48 50 51 50 46 44 42 40 38 35 35 35 35 34 31 29 27 23 19 13 7 3 359 357 355 353 352 351 351 352 352 352 352 352 352 351 349 346 340 335 330 327 321 315 309 302 295 289 285 282 279 278 276 272 268 264
147 170 218 83 94 287 224 198 218 238 256 252 238 254 262 254 235 142 126 119 117 121 115 110 108 107 107 110 111 103 91 83 79 73 65 63 64 59 55 51 47 45 44 48 51 48 45 41 37 34 33 32 31 30 30 29 30 32 31 28 22 15 7 360 357 354 350 349 348 348 348 347 347 345 344 345 345 345 344 342 339 335 332 328 321 314 307 301 294 289 285 282 280 278 275 272 269
44 40 344 148 178 214 201 212 223 228 255 263 253 258 258 277 325 112 127 131 131 133 130 132 136 133 137 141 137 126 112 110 102 93 84 75 70 58 51 48 43 39 37 41 43 38 35 33 30 29 28 27 24 24 24 24 25 27 27 27 25 22 18 11 5 358 352 348 346 345 344 344 344 343 341 342 342 342 341 340 339 336 333 330 326 321 313 306 300 295 290 286 283 280 277 276 273
80 58 292 269 243 258 253 254 234 229 253 261 259 258 243 304 352 96 119 128 139 146 145 152 156 157 167 179 179 186 172 143 131 116 102 85 75 62 53 47 43 38 35 36 35 31 29 26 25 25 23 22 20 19 19 17 17 17 16 16 16 14 14 13 11 7 2 355 347 341 338 337 337 336 337 339 340 341 341 339 337 335 333 330 327 325 320 313 306 301 297 292 289 285 281 278 277
128 134 236 251 27 318 281 258 229 213 235 243 258 262 243 260 341 99 115 123 131 141 147 155 166 173 183 185 181 190 187 166 148 113 84 61 56 52 49 46 42 36 32 31 28 26 25 22 21 19 17 16 13 11 9 8 7 6 5 4 3 2 2 2 2 2 1 360 355 350 343 336 331 329 329 330 332 335 336 337 336 335 333 331 328 326 323 318 311 306 301 297 293 290 286 283 280